Weather History for KPMP - December, 2012

Change the Weather History Date:

Thursday, December 27, 2012

  Actual Average (KFLL) Record (KFLL)
Temperature  
Mean Temperature 62 °F 69 °F  
Max Temperature 70 °F 77 °F 86 °F (1924)
Min Temperature 53 °F 62 °F 38 °F (1956)
Degree Days  
Heating Degree Days 3 1  
Month to date heating degree days 22  
Since 1 July heating degree days 24  
Cooling Degree Days 0 6  
Month to date cooling degree days 194  
Year to date cooling degree days 4707  
Growing Degree Days 12 (Base 50)    
Moisture  
Dew Point 49 °F    
Average Humidity 69    
Maximum Humidity 96    
Minimum Humidity 39    
Precipitation  
Precipitation 0.00 in 0.06 in 3.22 in (1940)
Month to date precipitation 2.24  
Year to date precipitation 61.96  
Snow  
Snow 0.00 in - - ()
Month to date snowfall  
Since 1 July snowfall  
Snow Depth -    
Sea Level Pressure  
Sea Level Pressure 30.04 in    
Wind  
Wind Speed 8 mph (NW)    
Max Wind Speed 15 mph    
Max Gust Speed 22 mph    
Visibility 10 miles    
Events      
T = Trace of Precipitation, MM = Missing Value Source: NWS Daily Summary

Daily Weather History Graph

Daily Weather History Graph

Search for Another Location

Airport or City:

Trip Planner

Search our weather history database for the weather conditions in past years. The results will help you decide how hot, cold, wet, or windy it might be!

Date:

Astronomy

Dec. 27, 2012 Rise Set
Actual Time 7:06 AM EST 5:37 PM EST
Civil Twilight 6:41 AM EST 6:02 PM EST
Nautical Twilight 6:12 AM EST 6:31 PM EST
Astronomical Twilight 5:44 AM EST 6:59 PM EST
Moon 5:15 PM EST (12/27) 6:19 AM EST (12/27)
Length of Visible Light 11h 21m
Length of Day
10h 30m
Full, 100% of the Moon is Illuminated
Dec 27
Full
Dec 28
Full
Jan 4
Last Quarter
Jan 11
New
Jan 18
First Quarter

Hourly Weather History & Observations

Time (EST) Temp. Dew Point Humidity Pressure Visibility Wind Dir Wind Speed Gust Speed Precip Events Conditions
12:53 AM 61.0 °F 57.0 °F 87% 30.00 in 10.0 mi WNW 15.0 mph 21.9 mph N/A   Clear
1:53 AM 60.1 °F 55.9 °F 86% 30.00 in 10.0 mi WNW 10.4 mph - N/A   Clear
2:53 AM 57.9 °F 54.0 °F 87% 30.00 in 10.0 mi WNW 12.7 mph - N/A   Clear
3:53 AM 57.0 °F 54.0 °F 89% 30.00 in 10.0 mi NW 8.1 mph - N/A   Clear
4:53 AM 55.0 °F 54.0 °F 96% 30.02 in 10.0 mi WNW 5.8 mph - N/A   Clear
5:53 AM 55.0 °F 54.0 °F 96% 30.03 in 10.0 mi WNW 5.8 mph - N/A   Clear
6:53 AM 54.0 °F 52.0 °F 93% 30.04 in 10.0 mi NW 9.2 mph - N/A   Clear
7:53 AM 54.0 °F 52.0 °F 93% 30.06 in 10.0 mi NW 8.1 mph - N/A   Clear
8:53 AM 55.9 °F 48.9 °F 77% 30.07 in 10.0 mi NNW 10.4 mph - N/A   Clear
9:53 AM 59.0 °F 48.0 °F 67% 30.08 in 10.0 mi NW 9.2 mph - N/A   Clear
10:53 AM 63.0 °F 48.9 °F 60% 30.07 in 10.0 mi WNW 5.8 mph - N/A   Clear
11:53 AM 64.9 °F 46.0 °F 50% 30.06 in 10.0 mi NW 3.5 mph - N/A   Clear
12:53 PM 68.0 °F 46.0 °F 45% 30.04 in 10.0 mi Calm Calm - N/A   Clear
1:53 PM 70.0 °F 44.1 °F 39% 30.01 in 10.0 mi WNW 4.6 mph - N/A   Clear
2:53 PM 70.0 °F 46.0 °F 42% 30.00 in 10.0 mi ENE 5.8 mph - N/A   Clear
3:53 PM 69.1 °F 46.9 °F 45% 30.01 in 10.0 mi East 6.9 mph - N/A   Partly Cloudy
4:53 PM 68.0 °F 46.9 °F 47% 30.02 in 10.0 mi East 4.6 mph - N/A   Partly Cloudy
5:53 PM 64.9 °F 48.0 °F 54% 30.04 in 10.0 mi Calm Calm - N/A   Clear
7:53 PM 59.0 °F 48.0 °F 67% 30.05 in 10.0 mi NNW 6.9 mph - N/A   Clear
8:53 PM 57.0 °F 46.0 °F 67% 30.07 in 10.0 mi NW 3.5 mph - N/A   Clear
9:53 PM 55.9 °F 46.0 °F 69% 30.08 in 10.0 mi Calm Calm - N/A   Clear
10:53 PM 55.9 °F 45.0 °F 67% 30.07 in 10.0 mi Calm Calm - N/A   Clear
11:53 PM 53.1 °F 45.0 °F 74% 30.07 in 10.0 mi NNW 5.8 mph - N/A   Clear